TimeMDT,TemperatureF,Dew PointF,Humidity,Sea Level PressureIn,VisibilityMPH,Wind Direction,Wind SpeedMPH,Gust SpeedMPH,PrecipitationIn,Events,Conditions,WindDirDegrees,DateUTC
12:55 AM,50.5,32.7,51,30.12,10.0,WNW,9.2,-,N/A,,Clear,300,2013-06-14 06:55:00
1:55 AM,49.6,34.7,56,30.14,10.0,WNW,15.0,-,N/A,,Clear,290,2013-06-14 07:55:00
2:55 AM,46.4,35.1,65,30.15,10.0,WNW,11.5,-,N/A,,Clear,290,2013-06-14 08:55:00
3:55 AM,44.6,34.0,66,30.18,10.0,NW,3.5,-,N/A,,Clear,310,2013-06-14 09:55:00
4:19 AM,44.6,33.8,66,30.19,10.0,West,6.9,-,N/A,,Mostly Cloudy,280,2013-06-14 10:19:00
4:55 AM,43.9,32.9,65,30.18,10.0,WNW,8.1,-,N/A,,Mostly Cloudy,290,2013-06-14 10:55:00
5:02 AM,44.6,32.0,61,30.18,10.0,WNW,8.1,-,N/A,,Scattered Clouds,290,2013-06-14 11:02:00
5:55 AM,42.6,31.6,65,30.20,10.0,WNW,6.9,-,N/A,,Clear,290,2013-06-14 11:55:00
6:55 AM,44.6,32.0,61,30.20,10.0,NW,5.8,-,N/A,,Clear,310,2013-06-14 12:55:00
7:55 AM,51.3,32.2,48,30.21,10.0,WNW,9.2,-,N/A,,Clear,300,2013-06-14 13:55:00
8:55 AM,54.0,32.7,45,30.22,10.0,WNW,6.9,-,N/A,,Clear,300,2013-06-14 14:55:00
9:55 AM,56.7,33.8,42,30.22,10.0,WNW,10.4,17.3,N/A,,Clear,300,2013-06-14 15:55:00
10:55 AM,58.6,32.5,37,30.21,10.0,NW,4.6,-,N/A,,Clear,310,2013-06-14 16:55:00
11:55 AM,60.4,30.0,32,30.20,10.0,NW,10.4,-,N/A,,Clear,320,2013-06-14 17:55:00
12:55 PM,64.4,29.3,27,30.18,10.0,Variable,6.9,-,N/A,,Clear,0,2013-06-14 18:55:00
1:55 PM,66.0,27.7,24,30.16,10.0,NNW,10.4,25.3,N/A,,Clear,330,2013-06-14 19:55:00
2:55 PM,67.8,27.5,22,30.14,10.0,NNW,10.4,19.6,N/A,,Clear,330,2013-06-14 20:55:00
3:55 PM,69.1,25.5,19,30.11,10.0,WNW,6.9,-,N/A,,Clear,290,2013-06-14 21:55:00
4:55 PM,70.7,23.7,17,30.09,10.0,Calm,Calm,-,N/A,,Clear,0,2013-06-14 22:55:00
5:55 PM,71.4,21.9,16,30.07,10.0,North,3.5,-,N/A,,Clear,360,2013-06-14 23:55:00
11:55 PM,57.2,19.6,23,30.04,10.0,NW,5.8,-,N/A,,Clear,320,2013-06-15 05:55:00